Location: Eexterzandvoort
(53.0303°N, 6.7884°E)
Time: 01:09:21
(UTC+00:00)

CZ-4B R/B - Pass Details

Date: 19 May 2025
Orbit: 449 x 582 km, 97.8° (Epoch: 23 June)

Event Time Altitude Azimuth Distance (km) Brightness Sun altitude
Rises 20:18:07 0° 188° (S) 2,771 6.0 -6.1°
Reaches altitude 10° 20:20:27 10° 199° (SSW) 1,864 5.3 -6.4°
Maximum altitude 20:24:06 32° 263° (W) 965 4.5 -6.8°
Drops below altitude 10° 20:27:41 10° 328° (NNW) 1,817 7.1 -7.1°
Sets 20:29:56 0° 339° (NNW) 2,690 7.9 -7.3°
